Location: Austin
(30.3000°N, 97.7500°W)
Time: 21:56:17
(UTC-06:00)

SKYMED 2 - Pass Details

Date: 03 December 2025
Orbit: 621 x 623 km, 97.9° (Epoch: 07 December)

Event Time Altitude Azimuth Distance (km) Brightness Sun altitude
Rises 06:24:05 0° 187° (S) 2,885 7.2 -10.3°
Reaches altitude 10° 06:26:25 10° 196° (SSW) 1,982 6.2 -9.9°
Maximum altitude 06:30:21 34° 262° (W) 1,021 4.2 -9.1°
Drops below altitude 10° 06:34:18 10° 328° (NNW) 1,992 5.7 -8.3°
Sets 06:36:40 0° 337° (NNW) 2,902 6.6 -7.8°
Enters shadow 06:36:46 - 337° (NNW) 2,943 6.6 -7.8°
